Location: Unspecified
(43.8044°N, 11.0278°E)
Time: 11:48:42
(UTC+02:00)

Cosmos 1674 - Visible Passes

Search period start: 02 July 2015 00:00
Search period end: 12 July 2015 00:00
Orbit: 505 x 533 km, 82.5° (Epoch: 01 July)

Date Brightness Start Highest point End Pass type
(mag) Time Alt. Az. Time Alt. Az. Time Alt. Az.
02 Jul 5.6 22:30:57 10° WSW 22:33:25 16° WNW 22:35:46 10° NNW visible
03 Jul 5.6 22:16:33 10° WSW 22:19:19 18° WNW 22:22:00 10° NNW visible
04 Jul 5.4 22:02:13 10° SW 22:05:13 21° WNW 22:08:09 10° NNW visible
05 Jul 5.2 21:47:56 10° SW 21:51:08 25° WNW 21:54:17 10° NNW visible
06 Jul 4.9 21:33:41 10° SW 21:37:02 29° WNW 21:40:23 10° NNW visible
